Time,TemperatureF,DewpointF,PressureIn,WindDirection,WindDirectionDegrees,WindSpeedMPH,WindSpeedGustMPH,Humidity,HourlyPrecipIn,Conditions,Clouds,dailyrainin,SoftwareType,DateUTC
2013-01-23 00:03:00,8.0,0.0,30.31,WSW,254,2.0,-999.0,70,-99.99,,,-99.99,,2013-01-23 05:03:00,
2013-01-23 00:12:00,8.0,0.0,30.31,WSW,254,2.0,-999.0,70,-99.99,,,-99.99,,2013-01-23 05:12:00,
2013-01-23 00:23:00,8.0,0.0,30.31,West,277,1.0,-999.0,70,-99.99,,,-99.99,,2013-01-23 05:23:00,
2013-01-23 00:33:00,8.0,0.0,30.31,WNW,288,0.0,-999.0,70,-99.99,,,-99.99,,2013-01-23 05:33:00,
2013-01-23 00:43:00,8.0,0.0,30.31,WNW,288,0.0,-999.0,70,-99.99,,,-99.99,,2013-01-23 05:43:00,
2013-01-23 00:52:00,8.0,1.0,30.31,WSW,248,1.0,-999.0,72,-99.99,,,-99.99,,2013-01-23 05:52:00,
2013-01-23 01:03:00,8.0,2.0,30.31,West,279,2.0,-999.0,77,-99.99,,,-99.99,,2013-01-23 06:03:00,
2013-01-23 01:12:00,8.0,2.0,30.31,West,279,2.0,-999.0,77,-99.99,,,-99.99,,2013-01-23 06:12:00,
2013-01-23 01:22:00,7.0,1.0,30.31,West,261,2.0,-999.0,77,-99.99,,,-99.99,,2013-01-23 06:22:00,
2013-01-23 01:33:00,8.0,2.0,30.31,WSW,244,1.0,-999.0,75,-99.99,,,-99.99,,2013-01-23 06:33:00,
2013-01-23 01:43:00,8.0,2.0,30.31,WSW,244,1.0,-999.0,75,-99.99,,,-99.99,,2013-01-23 06:43:00,
2013-01-23 01:52:00,8.0,1.0,30.30,NW,325,1.0,-999.0,74,-99.99,,,-99.99,,2013-01-23 06:52:00,
2013-01-23 02:02:00,8.0,1.0,30.31,SSW,213,1.0,-999.0,74,-99.99,,,-99.99,,2013-01-23 07:02:00,
2013-01-23 02:13:00,8.0,1.0,30.31,SSW,213,1.0,-999.0,74,-99.99,,,-99.99,,2013-01-23 07:13:00,
2013-01-23 02:23:00,7.0,0.0,30.31,West,268,1.0,-999.0,73,-99.99,,,-99.99,,2013-01-23 07:23:00,
2013-01-23 02:33:00,8.0,2.0,30.31,WNW,289,1.0,-999.0,75,-99.99,,,-99.99,,2013-01-23 07:33:00,
2013-01-23 02:42:00,8.0,2.0,30.31,WNW,289,1.0,-999.0,75,-99.99,,,-99.99,,2013-01-23 07:42:00,
2013-01-23 02:52:00,8.0,1.0,30.32,NW,306,2.0,-999.0,72,-99.99,,,-99.99,,2013-01-23 07:52:00,
2013-01-23 03:02:00,8.0,2.0,30.32,West,259,0.0,-999.0,77,-99.99,,,-99.99,,2013-01-23 08:02:00,
2013-01-23 03:13:00,8.0,2.0,30.32,West,259,0.0,-999.0,77,-99.99,,,-99.99,,2013-01-23 08:13:00,
2013-01-23 03:23:00,8.0,0.0,30.32,WSW,257,3.0,-999.0,70,-99.99,,,-99.99,,2013-01-23 08:23:00,
2013-01-23 03:33:00,8.0,1.0,30.32,West,270,2.0,-999.0,71,-99.99,,,-99.99,,2013-01-23 08:33:00,
2013-01-23 03:43:00,8.0,1.0,30.32,West,270,2.0,-999.0,71,-99.99,,,-99.99,,2013-01-23 08:43:00,
2013-01-23 03:53:00,8.0,1.0,30.32,West,277,2.0,-999.0,73,-99.99,,,-99.99,,2013-01-23 08:53:00,
2013-01-23 04:03:00,8.0,2.0,30.31,West,265,2.0,-999.0,75,-99.99,,,-99.99,,2013-01-23 09:03:00,
2013-01-23 04:12:00,8.0,2.0,30.31,West,265,2.0,-999.0,75,-99.99,,,-99.99,,2013-01-23 09:12:00,
2013-01-23 04:22:00,8.0,3.0,30.31,WNW,295,0.0,-999.0,80,-99.99,,,-99.99,,2013-01-23 09:22:00,
2013-01-23 04:33:00,8.0,2.0,30.30,NW,320,1.0,-999.0,76,-99.99,,,-99.99,,2013-01-23 09:33:00,
2013-01-23 04:43:00,8.0,2.0,30.30,NW,320,1.0,-999.0,76,-99.99,,,-99.99,,2013-01-23 09:43:00,
2013-01-23 04:53:00,8.0,2.0,30.30,West,265,0.0,-999.0,76,-99.99,,,-99.99,,2013-01-23 09:53:00,
2013-01-23 05:03:00,7.0,1.0,30.30,West,275,1.0,-999.0,75,-99.99,,,-99.99,,2013-01-23 10:03:00,
2013-01-23 05:12:00,7.0,1.0,30.30,West,275,1.0,-999.0,75,-99.99,,,-99.99,,2013-01-23 10:12:00,
2013-01-23 05:23:00,7.0,0.0,30.30,WSW,245,1.0,-999.0,74,-99.99,,,-99.99,,2013-01-23 10:23:00,
2013-01-23 05:33:00,7.0,1.0,30.30,West,263,1.0,-999.0,76,-99.99,,,-99.99,,2013-01-23 10:33:00,
2013-01-23 05:43:00,7.0,1.0,30.30,West,263,1.0,-999.0,76,-99.99,,,-99.99,,2013-01-23 10:43:00,
2013-01-23 05:52:00,7.0,1.0,30.30,NE,56,1.0,-999.0,77,-99.99,,,-99.99,,2013-01-23 10:52:00,
2013-01-23 06:03:00,7.0,1.0,30.30,West,275,1.0,-999.0,76,-99.99,,,-99.99,,2013-01-23 11:03:00,
2013-01-23 06:12:00,7.0,1.0,30.30,West,275,1.0,-999.0,76,-99.99,,,-99.99,,2013-01-23 11:12:00,
2013-01-23 06:23:00,7.0,2.0,30.30,WNW,283,1.0,-999.0,78,-99.99,,,-99.99,,2013-01-23 11:23:00,
2013-01-23 06:34:00,7.0,1.0,30.30,SW,215,1.0,-999.0,76,-99.99,,,-99.99,,2013-01-23 11:34:00,
2013-01-23 06:43:00,7.0,1.0,30.30,SW,215,1.0,-999.0,76,-99.99,,,-99.99,,2013-01-23 11:43:00,
2013-01-23 06:53:00,7.0,1.0,30.31,West,259,2.0,-999.0,76,-99.99,,,-99.99,,2013-01-23 11:53:00,
2013-01-23 07:03:00,8.0,2.0,30.31,WNW,294,1.0,-999.0,76,-99.99,,,-99.99,,2013-01-23 12:03:00,
2013-01-23 07:13:00,8.0,2.0,30.31,WNW,294,1.0,-999.0,76,-99.99,,,-99.99,,2013-01-23 12:13:00,
2013-01-23 07:22:00,8.0,2.0,30.32,West,259,1.0,-999.0,76,-99.99,,,-99.99,,2013-01-23 12:22:00,
2013-01-23 07:33:00,8.0,2.0,30.31,WNW,290,1.0,-999.0,77,-99.99,,,-99.99,,2013-01-23 12:33:00,
2013-01-23 07:43:00,8.0,2.0,30.31,WNW,290,1.0,-999.0,77,-99.99,,,-99.99,,2013-01-23 12:43:00,
2013-01-23 07:53:00,8.0,2.0,30.31,WSW,247,2.0,-999.0,75,-99.99,,,-99.99,,2013-01-23 12:53:00,
2013-01-23 08:04:00,8.0,2.0,30.31,WNW,298,2.0,-999.0,76,-99.99,,,-99.99,,2013-01-23 13:04:00,
2013-01-23 08:13:00,8.0,2.0,30.31,WNW,298,2.0,-999.0,76,-99.99,,,-99.99,,2013-01-23 13:13:00,
2013-01-23 08:23:00,8.0,2.0,30.31,SW,233,2.0,-999.0,76,-99.99,,,-99.99,,2013-01-23 13:23:00,
2013-01-23 08:33:00,8.0,2.0,30.31,WSW,246,1.0,-999.0,76,-99.99,,,-99.99,,2013-01-23 13:33:00,
2013-01-23 08:42:00,8.0,2.0,30.31,WSW,246,1.0,-999.0,76,-99.99,,,-99.99,,2013-01-23 13:42:00,
2013-01-23 08:52:00,8.0,2.0,30.31,WNW,285,1.0,-999.0,76,-99.99,,,-99.99,,2013-01-23 13:52:00,
2013-01-23 09:03:00,8.0,2.0,30.31,West,262,1.0,-999.0,76,-99.99,,,-99.99,,2013-01-23 14:03:00,
2013-01-23 09:12:00,8.0,2.0,30.31,West,262,1.0,-999.0,76,-99.99,,,-99.99,,2013-01-23 14:12:00,
2013-01-23 09:23:00,8.0,2.0,30.32,WNW,284,2.0,-999.0,75,-99.99,,,-99.99,,2013-01-23 14:23:00,
2013-01-23 09:33:00,9.0,3.0,30.32,West,266,1.0,-999.0,75,-99.99,,,-99.99,,2013-01-23 14:33:00,
2013-01-23 09:43:00,9.0,3.0,30.32,West,266,1.0,-999.0,75,-99.99,,,-99.99,,2013-01-23 14:43:00,
2013-01-23 09:53:00,9.0,3.0,30.32,NW,309,1.0,-999.0,75,-99.99,,,-99.99,,2013-01-23 14:53:00,
2013-01-23 10:03:00,9.0,3.0,30.32,WSW,242,2.0,-999.0,75,-99.99,,,-99.99,,2013-01-23 15:03:00,
2013-01-23 10:13:00,9.0,3.0,30.32,WSW,242,2.0,-999.0,75,-99.99,,,-99.99,,2013-01-23 15:13:00,
2013-01-23 10:23:00,9.0,2.0,30.32,West,265,2.0,-999.0,74,-99.99,,,-99.99,,2013-01-23 15:23:00,
2013-01-23 10:33:00,10.0,3.0,30.33,WSW,244,2.0,-999.0,74,-99.99,,,-99.99,,2013-01-23 15:33:00,
2013-01-23 10:43:00,10.0,3.0,30.33,WSW,244,2.0,-999.0,74,-99.99,,,-99.99,,2013-01-23 15:43:00,
2013-01-23 10:53:00,10.0,3.0,30.32,SW,234,2.0,-999.0,73,-99.99,,,-99.99,,2013-01-23 15:53:00,
2013-01-23 11:03:00,11.0,4.0,30.32,NW,310,1.0,-999.0,72,-99.99,,,-99.99,,2013-01-23 16:03:00,
2013-01-23 11:12:00,11.0,4.0,30.32,NW,310,1.0,-999.0,72,-99.99,,,-99.99,,2013-01-23 16:12:00,
2013-01-23 11:23:00,11.0,4.0,30.32,West,277,1.0,-999.0,72,-99.99,,,-99.99,,2013-01-23 16:23:00,
2013-01-23 11:33:00,12.0,4.0,30.31,WNW,286,2.0,-999.0,71,-99.99,,,-99.99,,2013-01-23 16:33:00,
2013-01-23 11:42:00,12.0,4.0,30.31,WNW,286,2.0,-999.0,71,-99.99,,,-99.99,,2013-01-23 16:42:00,
2013-01-23 11:52:00,13.0,5.0,30.31,WNW,296,1.0,-999.0,70,-99.99,,,-99.99,,2013-01-23 16:52:00,
2013-01-23 12:03:00,13.0,5.0,30.30,NW,313,1.0,-999.0,70,-99.99,,,-99.99,,2013-01-23 17:03:00,
2013-01-23 12:12:00,13.0,5.0,30.30,NW,313,1.0,-999.0,70,-99.99,,,-99.99,,2013-01-23 17:12:00,
2013-01-23 12:23:00,13.0,5.0,30.29,West,259,1.0,-999.0,70,-99.99,,,-99.99,,2013-01-23 17:23:00,
2013-01-23 12:34:00,13.0,5.0,30.29,WSW,258,3.0,-999.0,70,-99.99,,,-99.99,,2013-01-23 17:34:00,
2013-01-23 12:43:00,13.0,5.0,30.29,WSW,258,3.0,-999.0,70,-99.99,,,-99.99,,2013-01-23 17:43:00,
2013-01-23 12:53:00,14.0,6.0,30.28,WSW,246,1.0,-999.0,71,-99.99,,,-99.99,,2013-01-23 17:53:00,
2013-01-23 13:04:00,14.0,6.0,30.27,SW,215,2.0,-999.0,70,-99.99,,,-99.99,,2013-01-23 18:04:00,
2013-01-23 13:12:00,14.0,6.0,30.27,SW,215,2.0,-999.0,70,-99.99,,,-99.99,,2013-01-23 18:12:00,
2013-01-23 13:23:00,13.0,5.0,30.27,West,269,2.0,-999.0,71,-99.99,,,-99.99,,2013-01-23 18:23:00,
2013-01-23 13:33:00,13.0,5.0,30.27,West,269,2.0,-999.0,71,-99.99,,,-99.99,,2013-01-23 18:33:00,
2013-01-23 13:43:00,14.0,7.0,30.26,WNW,298,1.0,-999.0,74,-99.99,,,-99.99,,2013-01-23 18:43:00,
2013-01-23 13:53:00,14.0,7.0,30.24,South,177,1.0,-999.0,73,-99.99,,,-99.99,,2013-01-23 18:53:00,
2013-01-23 14:03:00,14.0,7.0,30.24,SW,219,1.0,-999.0,72,-99.99,,,-99.99,,2013-01-23 19:03:00,
2013-01-23 14:13:00,14.0,7.0,30.24,SW,219,1.0,-999.0,72,-99.99,,,-99.99,,2013-01-23 19:13:00,
2013-01-23 14:23:00,15.0,8.0,30.23,WNW,296,1.0,-999.0,72,-99.99,,,-99.99,,2013-01-23 19:23:00,
2013-01-23 14:33:00,15.0,8.0,30.22,WSW,244,1.0,-999.0,74,-99.99,,,-99.99,,2013-01-23 19:33:00,
2013-01-23 14:43:00,15.0,8.0,30.22,WSW,244,1.0,-999.0,74,-99.99,,,-99.99,,2013-01-23 19:43:00,
2013-01-23 14:53:00,15.0,8.0,30.22,WSW,249,1.0,-999.0,73,-99.99,,,-99.99,,2013-01-23 19:53:00,
2013-01-23 15:03:00,15.0,8.0,30.22,SW,234,2.0,-999.0,74,-99.99,,,-99.99,,2013-01-23 20:03:00,
2013-01-23 15:13:00,15.0,8.0,30.22,SW,234,2.0,-999.0,74,-99.99,,,-99.99,,2013-01-23 20:13:00,
2013-01-23 15:23:00,15.0,8.0,30.22,WSW,239,2.0,-999.0,73,-99.99,,,-99.99,,2013-01-23 20:23:00,
2013-01-23 15:33:00,15.0,8.0,30.21,SW,234,2.0,-999.0,73,-99.99,,,-99.99,,2013-01-23 20:33:00,
2013-01-23 15:43:00,15.0,8.0,30.21,SW,234,2.0,-999.0,73,-99.99,,,-99.99,,2013-01-23 20:43:00,
2013-01-23 15:53:00,15.0,8.0,30.21,South,185,2.0,-999.0,72,-99.99,,,-99.99,,2013-01-23 20:53:00,
2013-01-23 16:03:00,15.0,8.0,30.21,West,267,1.0,-999.0,74,-99.99,,,-99.99,,2013-01-23 21:03:00,
2013-01-23 16:12:00,15.0,8.0,30.21,West,267,1.0,-999.0,74,-99.99,,,-99.99,,2013-01-23 21:12:00,
2013-01-23 16:23:00,15.0,9.0,30.20,West,281,2.0,-999.0,78,-99.99,,,-99.99,,2013-01-23 21:23:00,
2013-01-23 16:33:00,15.0,9.0,30.20,WSW,241,0.0,-999.0,78,-99.99,,,-99.99,,2013-01-23 21:33:00,
2013-01-23 16:43:00,15.0,9.0,30.20,WSW,241,0.0,-999.0,78,-99.99,,,-99.99,,2013-01-23 21:43:00,
2013-01-23 16:53:00,15.0,9.0,30.19,West,265,1.0,-999.0,77,-99.99,,,-99.99,,2013-01-23 21:53:00,
2013-01-23 17:03:00,15.0,9.0,30.19,West,265,1.0,-999.0,77,-99.99,,,-99.99,,2013-01-23 22:03:00,
2013-01-23 17:12:00,15.0,9.0,30.19,West,265,1.0,-999.0,77,-99.99,,,-99.99,,2013-01-23 22:12:00,
2013-01-23 17:23:00,15.0,9.0,30.19,South,190,0.0,-999.0,76,-99.99,,,-99.99,,2013-01-23 22:23:00,
2013-01-23 17:33:00,15.0,9.0,30.19,South,190,0.0,-999.0,76,-99.99,,,-99.99,,2013-01-23 22:33:00,
2013-01-23 17:43:00,15.0,9.0,30.19,South,190,0.0,-999.0,76,-99.99,,,-99.99,,2013-01-23 22:43:00,
2013-01-23 17:53:00,15.0,7.0,30.17,SW,232,2.0,-999.0,70,-99.99,,,-99.99,,2013-01-23 22:53:00,
2013-01-23 18:03:00,15.0,7.0,30.16,SW,230,1.0,-999.0,70,-99.99,,,-99.99,,2013-01-23 23:03:00,
2013-01-23 18:13:00,15.0,7.0,30.16,SW,230,1.0,-999.0,70,-99.99,,,-99.99,,2013-01-23 23:13:00,
2013-01-23 18:23:00,15.0,7.0,30.16,WSW,238,1.0,-999.0,71,-99.99,,,-99.99,,2013-01-23 23:23:00,
2013-01-23 18:33:00,14.0,7.0,30.16,South,190,0.0,-999.0,72,-99.99,,,-99.99,,2013-01-23 23:33:00,
2013-01-23 18:43:00,14.0,7.0,30.16,South,190,0.0,-999.0,72,-99.99,,,-99.99,,2013-01-23 23:43:00,
2013-01-23 18:53:00,14.0,7.0,30.16,West,269,0.0,-999.0,74,-99.99,,,-99.99,,2013-01-23 23:53:00,
2013-01-23 19:03:00,14.0,7.0,30.16,West,269,0.0,-999.0,74,-99.99,,,-99.99,,2013-01-24 00:03:00,
2013-01-23 19:12:00,14.0,7.0,30.16,West,269,0.0,-999.0,74,-99.99,,,-99.99,,2013-01-24 00:12:00,
2013-01-23 19:22:00,14.0,8.0,30.16,West,269,0.0,-999.0,75,-99.99,,,-99.99,,2013-01-24 00:22:00,
2013-01-23 19:33:00,14.0,8.0,30.16,West,269,0.0,-999.0,75,-99.99,,,-99.99,,2013-01-24 00:33:00,
2013-01-23 19:43:00,14.0,8.0,30.16,West,269,0.0,-999.0,75,-99.99,,,-99.99,,2013-01-24 00:43:00,
2013-01-23 19:53:00,14.0,8.0,30.16,West,269,0.0,-999.0,75,-99.99,,,-99.99,,2013-01-24 00:53:00,
2013-01-23 20:03:00,14.0,9.0,30.16,South,184,0.0,-999.0,79,-99.99,,,-99.99,,2013-01-24 01:03:00,
2013-01-23 20:12:00,14.0,9.0,30.16,South,184,0.0,-999.0,79,-99.99,,,-99.99,,2013-01-24 01:12:00,
2013-01-23 20:23:00,14.0,10.0,30.15,South,184,0.0,-999.0,82,-99.99,,,-99.99,,2013-01-24 01:23:00,
2013-01-23 20:33:00,14.0,10.0,30.15,South,184,0.0,-999.0,82,-99.99,,,-99.99,,2013-01-24 01:33:00,
2013-01-23 20:43:00,14.0,10.0,30.15,South,184,0.0,-999.0,82,-99.99,,,-99.99,,2013-01-24 01:43:00,
2013-01-23 20:52:00,14.0,10.0,30.15,South,184,0.0,-999.0,84,-99.99,,,-99.99,,2013-01-24 01:52:00,
2013-01-23 21:03:00,14.0,10.0,30.15,South,184,0.0,-999.0,85,-99.99,,,-99.99,,2013-01-24 02:03:00,
2013-01-23 21:12:00,14.0,10.0,30.15,South,184,0.0,-999.0,85,-99.99,,,-99.99,,2013-01-24 02:12:00,
2013-01-23 21:22:00,15.0,12.0,30.14,South,184,0.0,-999.0,88,-99.99,,,-99.99,,2013-01-24 02:22:00,
2013-01-23 21:33:00,14.0,11.0,30.14,South,184,0.0,-999.0,87,-99.99,,,-99.99,,2013-01-24 02:33:00,
2013-01-23 21:42:00,14.0,11.0,30.14,South,184,0.0,-999.0,87,-99.99,,,-99.99,,2013-01-24 02:42:00,
2013-01-23 21:52:00,14.0,11.0,30.14,South,184,0.0,-999.0,87,-99.99,,,-99.99,,2013-01-24 02:52:00,
2013-01-23 22:03:00,15.0,13.0,30.14,South,184,0.0,-999.0,90,-99.99,,,-99.99,,2013-01-24 03:03:00,
2013-01-23 22:12:00,15.0,13.0,30.14,South,184,0.0,-999.0,90,-99.99,,,-99.99,,2013-01-24 03:12:00,
2013-01-23 22:22:00,15.0,12.0,30.13,South,184,0.0,-999.0,88,-99.99,,,-99.99,,2013-01-24 03:22:00,
2013-01-23 22:33:00,14.0,11.0,30.13,South,184,0.0,-999.0,89,-99.99,,,-99.99,,2013-01-24 03:33:00,
2013-01-23 22:43:00,14.0,11.0,30.13,South,184,0.0,-999.0,89,-99.99,,,-99.99,,2013-01-24 03:43:00,
2013-01-23 22:52:00,14.0,11.0,30.13,South,184,0.0,-999.0,89,-99.99,,,-99.99,,2013-01-24 03:52:00,
2013-01-23 23:03:00,14.0,11.0,30.12,South,184,0.0,-999.0,88,-99.99,,,-99.99,,2013-01-24 04:03:00,
2013-01-23 23:12:00,14.0,11.0,30.12,South,184,0.0,-999.0,88,-99.99,,,-99.99,,2013-01-24 04:12:00,
2013-01-23 23:22:00,17.0,15.0,30.12,South,184,0.0,-999.0,92,-99.99,,,-99.99,,2013-01-24 04:22:00,
2013-01-23 23:33:00,15.0,12.0,30.12,South,184,0.0,-999.0,89,-99.99,,,-99.99,,2013-01-24 04:33:00,
2013-01-23 23:42:00,15.0,12.0,30.12,South,184,0.0,-999.0,89,-99.99,,,-99.99,,2013-01-24 04:42:00,
2013-01-23 23:52:00,14.0,11.0,30.12,South,184,0.0,-999.0,89,-99.99,,,-99.99,,2013-01-24 04:52:00,